User: anonymous   Login
Location: Unspecified
(0.0000°N, 0.0000°E)
Time: 02:31:51
(UTC+02:00)
Language:

Cosmos 1538 Rocket - Orbit

View from above orbital plane
View from above orbital plane
View from above satellite
View from above satellite

Ground track
Ground track

The orbit data is extracted from the following two-line orbital elements,

1 14760U 84019B   15242.47275237  .00000138  00000-0  56579-4 0  9999
2 14760 074.0418 246.4579 0029275 267.8838 202.1958 14.35715232649333
Epoch (UTC): 30 August 2015 11:20:45
Eccentricity: 0.0029275
inclination: 74.0418°
perigee height: 752 km
apogee height: 793 km
right ascension of ascending node: 246.4579°
argument of perigee: 267.8838°
revolutions per day: 14.35715232
mean anomaly at epoch: 202.1958°
orbit number at epoch: 64933

The dashed part of the orbit path shows where the satellite is in the earth's shadow,  

DLR